WD4IXD-WX Weather Reports


time (UTC)temp
C
wind
direction
speed
KPH
gust
KPH
rain 1hr
cm
rain 24hr
cm
rain mn
cm
humidity
%
barometer
mb
20260505071004 0 86 1.6 4.8 0.00 0.28 0.00 89 1015.9
20260505070503 0 98 0.0 4.8 0.00 0.28 0.00 89 1016.0
20260505070004 0 44 1.6 11.3 0.00 0.28 0.00 89 1015.9
20260505065504 0 56 3.2 4.8 0.00 0.28 0.00 89 1015.9
20260505065003 0 44 3.2 12.9 0.00 0.28 0.00 89 1015.8
20260505064504 0 50 3.2 8.0 0.00 0.28 0.00 89 1015.9
20260505064004 0 24 4.8 14.5 0.00 0.28 0.00 89 1016.0
20260505063504 0 33 6.4 19.3 0.00 0.28 0.00 89 1016.1
20260505063004 0 25 4.8 14.5 0.00 0.28 0.00 89 1016.1
20260505062503 0 25 4.8 11.3 0.00 0.28 0.00 89 1016.1
20260505062004 0 28 4.8 11.3 0.00 0.28 0.00 89 1016.0
20260505061504 0 20 4.8 16.1 0.00 0.28 0.00 88 1016.0
20260505061004 1 28 3.2 14.5 0.00 0.28 0.00 88 1016.1
20260505060504 1 15 4.8 14.5 0.00 0.28 0.00 88 1016.1
20260505060004 1 16 4.8 12.9 0.00 0.28 0.00 88 1016.0
20260505055503 1 18 4.8 11.3 0.00 0.28 0.28 88 1016.1
20260505055004 1 27 3.2 16.1 0.00 0.28 0.28 88 1016.2
20260505054503 1 29 4.8 16.1 0.00 0.28 0.28 88 1016.1
20260505054004 1 37 4.8 16.1 0.00 0.28 0.28 87 1016.1
20260505053504 1 18 4.8 14.5 0.00 0.28 0.28 87 1016.1
20260505053003 1 21 8.0 16.1 0.00 0.28 0.28 87 1016.1
20260505052503 1 16 3.2 12.9 0.00 0.28 0.28 88 1016.2
20260505052004 1 12 4.8 12.9 0.00 0.28 0.28 88 1016.1
20260505051504 1 28 4.8 9.7 0.00 0.28 0.28 88 1016.0
20260505051004 1 28 3.2 4.8 0.00 0.28 0.28 88 1016.1
20260505050504 1 34 1.6 9.7 0.00 0.28 0.28 88 1016.1
20260505041503 2 90 1.6 8.0 0.00 0.28 0.28 88 1016.2
20260505041004 2 83 3.2 9.7 0.00 0.28 0.28 87 1016.3
20260505040503 2 46 1.6 3.2 0.00 0.28 0.28 88 1016.3
20260505040004 2 48 3.2 11.3 0.00 0.28 0.28 87 1016.3
20260505035504 2 57 4.8 4.8 0.00 0.28 0.28 87 1016.1
20260505035003 2 114 1.6 4.8 0.00 0.28 0.28 86 1016.0
20260505034504 2 113 3.2 9.7 0.00 0.28 0.28 86 1016.1
20260505034003 2 85 3.2 4.8 0.00 0.28 0.28 85 1015.8
20260505033504 2 84 0.0 3.2 0.00 0.28 0.28 84 1015.8
20260505033004 2 84 0.0 3.2 0.00 0.28 0.28 84 1015.8
20260505032503 2 83 0.0 0.0 0.00 0.28 0.28 84 1015.7
20260505032004 2 83 0.0 0.0 0.00 0.28 0.28 84 1015.6
20260505031504 2 83 0.0 0.0 0.00 0.28 0.28 85 1015.5
20260505031004 1 83 0.0 1.6 0.00 0.28 0.28 85 1015.5
20260505030504 1 83 1.6 4.8 0.03 0.28 0.28 86 1015.3
20260505030004 1 83 3.2 4.8 0.03 0.28 0.28 86 1015.3
20260505025503 1 83 4.8 8.0 0.03 0.28 0.28 86 1015.3
20260505025004 1 92 4.8 4.8 0.03 0.28 0.28 86 1015.4
20260505024504 1 92 4.8 4.8 0.03 0.28 0.28 87 1015.2
20260505024004 1 91 4.8 9.7 0.05 0.28 0.28 87 1015.2
20260505023504 1 75 0.0 4.8 0.08 0.28 0.28 87 1015.2
20260505023004 1 63 3.2 8.0 0.10 0.28 0.28 87 1015.3
20260505022503 2 88 3.2 11.3 0.13 0.28 0.28 87 1015.3
20260505022004 2 93 4.8 11.3 0.15 0.28 0.28 86 1015.1
20260505021503 2 72 4.8 9.7 0.15 0.28 0.28 86 1015.1
20260505021004 2 74 1.6 8.0 0.18 0.28 0.28 86 1015.2
20260505020504 2 64 1.6 4.8 0.15 0.25 0.25 86 1015.1
20260505020004 2 94 1.6 4.8 0.18 0.25 0.25 86 1015.0
20260505015504 2 95 1.6 9.7 0.18 0.25 0.25 86 1015.0
20260505015003 2 27 3.2 11.3 0.23 0.25 0.25 85 1015.1
20260505014504 2 29 8.0 12.9 0.25 0.25 0.25 85 1015.3
20260505014004 2 325 11.3 16.1 0.23 0.23 0.23 84 1015.5
20260505013504 2 311 14.5 19.3 0.20 0.20 0.20 84 1015.5
20260505013004 2 317 8.0 16.1 0.18 0.18 0.18 84 1015.5
20260505012503 2 325 12.9 20.9 0.15 0.15 0.15 84 1015.4
20260505012004 2 305 9.7 20.9 0.13 0.13 0.13 85 1015.4
20260505011503 2 280 12.9 20.9 0.13 0.13 0.13 84 1015.4
20260505011004 2 267 14.5 24.1 0.10 0.10 0.10 83 1015.5
20260505010504 3 246 12.9 24.1 0.10 0.10 0.10 81 1015.5
20260505010004 3 274 9.7 24.1 0.08 0.08 0.08 80 1015.4
20260505005504 3 249 14.5 32.2 0.08 0.08 0.08 76 1015.4
20260505005004 4 266 9.7 22.5 0.03 0.03 0.03 71 1015.2
20260505004504 5 263 19.3 29.0 0.00 0.00 0.00 68 1015.2
20260505004004 6 231 11.3 22.5 0.00 0.00 0.00 64 1015.1
20260505003503 6 192 0.0 0.0 0.00 0.00 0.00 61 1015.1
20260505003004 6 267 0.0 0.0 0.00 0.00 0.00 60 1015.1
20260505002503 7 235 0.0 4.8 0.00 0.00 0.00 59 1015.2
20260505002004 7 215 4.8 9.7 0.00 0.00 0.00 57 1015.4
20260505001503 7 71 0.0 3.2 0.00 0.00 0.00 57 1015.3
20260505001004 7 67 0.0 3.2 0.00 0.00 0.00 56 1015.2
20260505000503 7 5 0.0 3.2 0.00 0.00 0.00 56 1015.4
20260505000004 7 5 1.6 3.2 0.00 0.00 0.00 56 1015.2
20260504235503 7 5 1.6 11.3 0.00 0.00 0.00 58 1015.2
20260504235004 7 338 4.8 11.3 0.00 0.00 0.00 58 1015.1
20260504234503 7 11 8.0 16.1 0.00 0.00 0.00 59 1015.1
20260504234004 7 343 0.0 11.3 0.00 0.00 0.00 58 1015.0
20260504233503 7 352 0.0 0.0 0.00 0.00 0.00 55 1014.9
20260504233004 7 349 0.0 0.0 0.00 0.00 0.00 51 1015.0
20260504232503 8 286 0.0 0.0 0.00 0.00 0.00 50 1014.8
20260504232004 8 218 0.0 0.0 0.00 0.00 0.00 49 1014.9
20260504231503 8 223 0.0 0.0 0.00 0.00 0.00 49 1014.9
20260504231004 8 217 0.0 32.2 0.00 0.00 0.00 47 1014.8
20260504230504 8 215 0.0 0.0 0.00 0.00 0.00 48 1014.7
20260504230003 8 214 0.0 0.0 0.00 0.00 0.00 49 1014.7
20260504225504 8 217 0.0 0.0 0.00 0.00 0.00 51 1014.6
20260504225004 7 216 0.0 0.0 0.00 0.00 0.00 51 1014.6
20260504224504 8 218 0.0 0.0 0.00 0.00 0.00 52 1014.6
20260504224004 8 216 27.4 41.8 0.00 0.00 0.00 53 1014.5
20260504223504 8 215 29.0 41.8 0.00 0.00 0.00 50 1014.5
20260504223004 10 213 20.9 35.4 0.00 0.00 0.00 44 1014.5
20260504222504 10 217 11.3 25.7 0.00 0.00 0.00 41 1014.7
20260504222004 10 208 4.8 11.3 0.00 0.00 0.00 40 1014.7
20260504221505 10 161 4.8 9.7 0.00 0.00 0.00 41 1014.6
20260504221003 10 186 4.8 11.3 0.00 0.00 0.00 41 1014.6
20260504220504 10 174 6.4 19.3 0.00 0.00 0.00 42 1014.7
20260504220003 10 159 9.7 19.3 0.00 0.00 0.00 42 1014.8
20260504215504 10 135 12.9 22.5 0.00 0.00 0.00 42 1014.8
20260504215004 9 141 9.7 16.1 0.00 0.00 0.00 42 1014.9
20260504214504 9 110 4.8 12.9 0.00 0.00 0.00 41 1014.9
20260504214004 10 115 9.7 14.5 0.00 0.00 0.00 40 1015.0
20260504213503 10 137 4.8 9.7 0.00 0.00 0.00 41 1015.1
20260504213004 10 357 1.6 8.0 0.00 0.00 0.00 40 1015.2
20260504212503 10 117 3.2 9.7 0.00 0.00 0.00 38 1015.0
20260504212004 10 116 3.2 4.8 0.00 0.00 0.00 41 1015.1
20260504211503 10 39 4.8 8.0 0.00 0.00 0.00 37 1015.2
20260504211004 10 355 3.2 8.0 0.00 0.00 0.00 37 1015.1
20260504210503 10 240 1.6 9.7 0.00 0.00 0.00 38 1015.2
20260504210004 10 259 1.6 19.3 0.00 0.00 0.00 38 1015.2
20260504205503 10 274 11.3 19.3 0.00 0.00 0.00 39 1015.3
20260504205004 9 339 11.3 20.9 0.00 0.00 0.00 40 1015.4
20260504204503 9 284 11.3 20.9 0.00 0.00 0.00 41 1015.5
20260504204004 9 321 4.8 22.5 0.00 0.00 0.00 44 1015.4
20260504203504 9 323 8.0 22.5 0.00 0.00 0.00 50 1015.5
20260504203003 9 323 12.9 20.9 0.00 0.00 0.00 47 1015.5
20260504202504 9 308 14.5 22.5 0.00 0.00 0.00 41 1015.5
20260504202004 10 321 11.3 22.5 0.00 0.00 0.00 39 1015.5
20260504201504 10 284 8.0 16.1 0.00 0.00 0.00 36 1015.5
20260504201003 10 256 9.7 14.5 0.00 0.00 0.00 37 1015.5
20260504200504 10 234 8.0 16.1 0.00 0.00 0.00 33 1015.5
20260504200003 10 243 3.2 9.7 0.00 0.00 0.00 34 1015.4
20260504195504 10 264 9.7 16.1 0.00 0.00 0.00 33 1015.4
20260504195003 10 343 3.2 12.9 0.00 0.00 0.00 32 1015.4
20260504194504 10 330 3.2 9.7 0.00 0.00 0.00 32 1015.5
20260504194003 10 310 3.2 9.7 0.00 0.00 0.00 33 1015.5
20260504193504 10 334 0.0 0.0 0.00 0.00 0.00 32 1015.5
20260504193003 10 302 0.0 0.0 0.00 0.00 0.00 33 1015.5
20260504192504 10 313 0.0 0.0 0.00 0.00 0.00 32 1015.6
20260504192004 10 325 0.0 11.3 0.00 0.00 0.00 32 1015.6
20260504191504 10 304 9.7 16.1 0.00 0.00 0.00 33 1015.7
20260504191004 10 321 9.7 19.3 0.00 0.00 0.00 33 1015.7
20260504190504 10 338 11.3 20.9 0.00 0.00 0.00 33 1015.8
20260504190004 10 311 9.7 16.1 0.00 0.00 0.00 33 1015.8
20260504185503 10 30 3.2 12.9 0.00 0.00 0.00 33 1015.7
20260504185003 11 262 8.0 20.9 0.00 0.00 0.00 32 1015.9
20260504184503 11 280 11.3 19.3 0.00 0.00 0.00 32 1015.9
20260504184004 11 276 9.7 22.5 0.00 0.00 0.00 33 1016.0
20260504183503 10 278 0.0 0.0 0.00 0.00 0.00 33 1016.1
20260504183004 10 289 0.0 0.0 0.00 0.00 0.00 34 1016.1
20260504182504 9 285 0.0 19.3 0.00 0.00 0.00 37 1016.3
20260504182003 9 290 8.0 27.4 0.00 0.00 0.00 38 1016.3
20260504181504 9 292 8.0 20.9 0.00 0.00 0.00 37 1016.4
20260504181004 9 271 14.5 27.4 0.00 0.00 0.00 38 1016.5
20260504180504 9 243 11.3 24.1 0.00 0.00 0.00 38 1016.5
20260504180004 9 291 16.1 25.7 0.00 0.00 0.00 36 1016.6
20260504175503 9 292 11.3 27.4 0.00 0.00 0.00 35 1016.6
20260504175004 9 258 14.5 22.5 0.00 0.00 0.00 33 1016.5
20260504174503 9 252 17.7 29.0 0.00 0.00 0.00 34 1016.5
20260504174004 10 241 20.9 37.0 0.00 0.00 0.00 32 1016.4
20260504173503 11 263 12.9 37.0 0.00 0.00 0.00 30 1016.4
20260504173004 11 249 11.3 37.0 0.00 0.00 0.00 34 1016.5
20260504172504 10 271 17.7 32.2 0.00 0.00 0.00 33 1016.5
20260504172004 10 273 11.3 25.7 0.00 0.00 0.00 35 1016.6
20260504171504 10 243 17.7 32.2 0.00 0.00 0.00 36 1016.6
20260504171004 10 215 20.9 33.8 0.00 0.00 0.00 37 1016.7
20260504170503 10 242 16.1 32.2 0.00 0.00 0.00 35 1016.7
20260504151004 4 306 1.6 22.5 0.00 0.00 0.00 60 1017.9
20260504150503 4 286 14.5 25.7 0.00 0.00 0.00 60 1018.1
20260504141004 3 229 4.8 9.7 0.00 0.00 0.00 54 1018.0
20260504140503 3 225 4.8 9.7 0.00 0.00 0.00 53 1018.0
20260504130504 1 169 0.0 3.2 0.00 0.00 0.00 55 1017.6
20260504110504 2 240 3.2 4.8 0.00 0.00 0.00 48 1017.2
20260504100503 3 46 4.8 8.0 0.00 0.00 0.00 46 1017.3
20260504082003 3 259 4.8 11.3 0.00 0.00 0.00 46 1017.9
20260504081504 3 263 4.8 9.7 0.00 0.00 0.00 46 1017.9
20260504081004 3 267 4.8 9.7 0.00 0.00 0.00 46 1017.9
20260504080504 3 261 0.0 0.0 0.00 0.00 0.00 45 1017.9